Location: Newark
(50.9000°N, 14.8333°E)
Time: 17:42:09
(UTC+00:00)

N. Korean satellite - Pass Details

Date: 31 October 2020
Orbit: 453 x 503 km, 97.2° (Epoch: 04 December)

Event Time Altitude Azimuth Distance (km) Brightness Sun altitude
Rises 05:10:52 0° 7° (N) 2,484 10.1 -6.9°
Reaches altitude 10° 05:12:58 10° 0° (N) 1,603 9.1 -6.6°
Maximum altitude 05:16:13 42° 289° (WNW) 669 6.8 -6.1°
Drops below altitude 10° 05:19:27 10° 218° (SW) 1,591 9.0 -5.6°
Sets 05:21:32 0° 211° (SSW) 2,463 10.0 -5.3°
